Air Resources Laboratory banner image
Air Resources Laboratory web site National Oceanic and Atmospheric Administration (NOAA)

ct roundup


Office: OKX

ASUS41 KOKX 140005
RWROKX

Regional Weather Roundup
National Weather Service New York NY
800 PM EDT SAT AUG 13 2022

Note: "FAIR" indicates few or no clouds below 12,000 feet with no
significant weather and/or obstructions to visibility.

NYZ071-072-176-178-NJZ106-104-140100-
New York City Metro Area

CITY           SKY/WX    TMP DP  RH WIND       PRES   REMARKS
Central Park   CLEAR     73  48  41 CALM      30.09R
World Trd Ctr  NOT AVBL
Bronx Lehman C   N/A     75  48  38 E6          N/A
LaGuardia Arpt PTCLDY    76  46  34 E8        30.05R
Queens College   N/A     75  48  38 E6          N/A
Kennedy Intl   PTCLDY    75  48  38 NE6       30.06R
Breezy Point     N/A     72 N/A N/A S9          N/A
Brooklyn Coll    N/A     77  48  36 NE7         N/A
Staten Island    N/A     73  52  46 S7          N/A
Newark/Liberty PTCLDY    78  47  33 NE7       30.05R
Teterboro      CLEAR     76  47  35 NE5       30.04R
$$

NYZ177-179-078>081-140100-
Long Island New York

CITY           SKY/WX    TMP DP  RH WIND       PRES   REMARKS
Jones Beach      N/A     72 N/A N/A S5          N/A
Wantagh          N/A     73  50  43 W1          N/A
Hempstead      NOT AVBL
Matinecock Pt    N/A     73 N/A N/A SE2         N/A
Farmingdale    CLEAR     74  48  39 E3        30.07R
MacArthur/ISP  PTCLDY    74  48  39 CALM      30.06R
Stony Brook      N/A     72  52  49 W1          N/A
Shirley        CLEAR     70  50  49 W3        30.07R
Mt Sinai Harb    N/A     73 N/A N/A CALM        N/A
Westhampton    CLEAR     69  51  52 NW3       30.07
East Hampton   FAIR      67  52  59 CALM      30.04S
Southold         N/A     68  54  60 NE5         N/A
Montauk          N/A     73  58  59 CALM      30.06R
$$

NYZ052-065-067-140100-
Hudson Valley

CITY           SKY/WX    TMP DP  RH WIND       PRES   REMARKS
White Plains   NOT AVBL
Larchmont Harb   N/A     73 N/A N/A E7          N/A
Croton On Huds   N/A     75 N/A N/A E3          N/A
Somers           N/A     70  50  49 N1          N/A
Brewster         N/A     66  50  55 NW2         N/A
Newburgh       PTCLDY    75  46  35 NE6       30.06R
Montgomery     CLEAR     68  51  54 NW3       30.06R
Otisville        N/A     70  52  52 NW2         N/A
Warwick          N/A     72  52  49 E2          N/A
Suffern          N/A     70  48  46 SE1         N/A
Poughkeepsie   MOCLDY    73  48  41 NE5       30.05R
Albany         PTCLDY    74  49  41 CALM      30.07R
$$

NJZ001-105-106-008-010-013-015-019>022-104-140100-
New Jersey

CITY           SKY/WX    TMP DP  RH WIND       PRES   REMARKS
Newark/Liberty PTCLDY    78  47  33 NE7       30.05R
Teterboro      CLEAR     76  47  35 NE5       30.04R
Caldwell       PTCLDY    76  46  34 SE6       30.06R
Somerville     CLEAR     72  48  42 CALM      30.03R
Linden         FAIR      78  47  34 S5        30.06R
Perth Amboy      N/A     75 N/A N/A SE7         N/A
Sussex         CLOUDY    72  53  51 CALM      30.06R
Andover          N/A     72  50  45 CALM      30.07R
Trenton        CLEAR     76  48  37 CALM      30.05R
Millville      CLEAR     71  55  56 SE10      30.07R
Atlantic City  CLEAR     70  54  56 SE8       30.08S
Wrightstown    CLEAR     71  52  50 SE8       30.07R
Toms River     NOT AVBL
Belmar         CLEAR     71  54  54 SE5       30.08R
$$

PAZ047>061-062-071-140100-
Eastern Pennsylvania

CITY           SKY/WX    TMP DP  RH WIND       PRES   REMARKS
Philadelphia   PTCLDY    80  49  33 CALM      30.05R
Allentown      CLEAR     75  43  31 NW3       30.06R
Scranton       CLEAR     72  46  39 CALM      30.07R
$$

CTZ002-004>006-009-010-012-RIZ004-006-007-MAZ004-011-015-140100-
Southern New England

 In CT

CITY           SKY/WX    TMP DP  RH WIND       PRES   REMARKS
Bradley Intl   MOCLDY    71  52  50 NW6       30.06R
Hartford       PTCLDY    74  50  42 N6        30.05R
Danbury        CLEAR     73  48  41 CALM      30.08R
Wtrbury/Oxford MOCLDY    67  52  58 N5        30.09R
Norwalk Harbor NOT AVBL
Bridgeport     CLEAR     74  54  49 SW3       30.06R
Meriden        CLOUDY    73  49  42 CALM      30.05R
New Haven      CLOUDY    74  54  49 N3        30.06R
Chester        FAIR      70  50  49 CALM      30.07R
Groton         CLEAR     73  50  44 N5        30.04R
Willimantic    MOCLDY    70  51  51 NW3       30.06R

 In RI

CITY           SKY/WX    TMP DP  RH WIND       PRES   REMARKS
Providence     PTCLDY    70  57  63 SE3       30.05R
Block Island   CLEAR     68  56  65 S6        30.06R
Westerly       CLEAR     70  59  68 CALM      30.05R

In MA

CITY           SKY/WX    TMP DP  RH WIND       PRES   REMARKS
Boston         PTCLDY    65  58  78 SE3       30.06R
Worcester      MOCLDY    67  52  58 NW6       30.08R
Westfield      CLOUDY    72  52  49 NW5       30.06R
Provincetown   NOT AVBL
Nantucket      CLEAR     67  63  87 N6        30.04R
$$

ANZ330-335-338-340-345-350-353-355-140100-
Coastal Marine Observations


STATION/POSITION TIME  SKY/WX   TEMP    WIND        PRES    VSBY  WAVE
                                AIR SEA DIR/SP/G                  HT/PER
                 (UTC)          (F)     (DEG/KT/KT) (MB)    (MI)  (FT/S)
NY Harb Entrance 2340               73  170/  6/  8 1017.1
20 S Fire Island 2340               74              1017.4
Great South Bay  2330            75      CALM  /  4   N/A
23 SSW Montauk P 2340            72     280/ 10/ 14 1017.5
15 E Barnegat Li 2326               75                N/A           3/ 5
Hudson Canyon    2340            72 79   CALM  /  2 1017.9
Kings Point      2330            76 74   70/  2/  3 1018.0
Execution Rocks  2330            76     100/  6/ 17   N/A
Western LI Sound 2315            77     130/  6/  8   N/A
Central LI Sound NOT AVBL
Robbins Reef     2330            77      40/  9/  9 1017.3
$$


>>>>>>>>>>>>>>>>>>>>>>>>>>>> KEY <<<<<<<<<<<<<<<<<<<<<<<<<<<
>                                                          <
>     SKY/WX - Sky Condition/Present Weather               <
>     TMP    - Temperature in Fahrenheit                   <
>     DP     - Dew Point in Fahrenheit                     <
>     RH     - Relative Humidity in Percent                <
>     WIND   - Direction (from) and Speed in MPH           <
>     PRES   - Mean Sea Level Pressure (inches of Hg)      <
>     WCI    - Wind Chill Index                            <
>     VSB    - Visibility in Miles                         <
>     HX     - Heat Index                                  <
>     TC     - Temperature in Celsius                      <
>     VRB    - Variable Wind Direction                     <
>                                                          <
>>>>>>>>>>>>>>>>>>>>>>>>>>>> KEY <<<<<<<<<<<<<<<<<<<<<<<<<<<


ASUS41 KOKX 140010
RWROKX

Regional Weather Roundup
National Weather Service New York NY
800 PM EDT SAT AUG 13 2022

Note: "FAIR" indicates few or no clouds below 12,000 feet with no
significant weather and/or obstructions to visibility.

NYZ071-072-176-178-NJZ106-104-140100-
New York City Metro Area

CITY           SKY/WX    TMP DP  RH WIND       PRES   REMARKS
Central Park   CLEAR     73  48  41 CALM      30.09R
World Trd Ctr  NOT AVBL
Bronx Lehman C   N/A     75  48  38 E5          N/A
LaGuardia Arpt PTCLDY    76  46  34 E8        30.05R
Queens College   N/A     75  48  38 E5          N/A
Kennedy Intl   PTCLDY    75  48  38 NE6       30.06R
Breezy Point     N/A     72 N/A N/A S9          N/A
Brooklyn Coll    N/A     77  46  33 NE6         N/A
Staten Island    N/A     73  52  46 S5          N/A
Newark/Liberty PTCLDY    78  47  33 NE7       30.05R
Teterboro      CLEAR     76  47  35 NE5       30.04R
$$

NYZ177-179-078>081-140100-
Long Island New York

CITY           SKY/WX    TMP DP  RH WIND       PRES   REMARKS
Jones Beach      N/A     72 N/A N/A S5          N/A
Wantagh          N/A     73  52  46 S2          N/A
Hempstead      NOT AVBL
Matinecock Pt    N/A     73 N/A N/A SE2         N/A
Farmingdale    CLEAR     74  48  39 E3        30.07R
MacArthur/ISP  PTCLDY    74  48  39 CALM      30.06R
Stony Brook      N/A     72  52  49 CALM        N/A
Shirley        CLEAR     70  50  49 W3        30.07R
Mt Sinai Harb    N/A     73 N/A N/A CALM        N/A
Westhampton    CLEAR     69  51  52 NW3       30.07
East Hampton   FAIR      67  52  59 CALM      30.04S
Southold         N/A     68  54  60 NE3         N/A
Montauk          N/A     73  58  59 CALM      30.06R
$$

NYZ052-065-067-140100-
Hudson Valley

CITY           SKY/WX    TMP DP  RH WIND       PRES   REMARKS
White Plains   CLEAR     68  54  60 CALM      30.07R
Larchmont Harb   N/A     73 N/A N/A E7          N/A
Croton On Huds   N/A     75 N/A N/A E3          N/A
Somers           N/A     68  48  49 N1          N/A
Brewster         N/A     66  50  55 N1          N/A
Newburgh       PTCLDY    75  46  35 NE6       30.06R
Montgomery     CLEAR     68  51  54 NW3       30.06R
Otisville        N/A     68  52  56 NW2         N/A
Warwick          N/A     70  52  52 SE2         N/A
Suffern          N/A     70  48  46 CALM        N/A
Poughkeepsie   MOCLDY    73  48  41 NE5       30.05R
Albany         PTCLDY    74  49  41 CALM      30.07R
$$

NJZ001-105-106-008-010-013-015-019>022-104-140100-
New Jersey

CITY           SKY/WX    TMP DP  RH WIND       PRES   REMARKS
Newark/Liberty PTCLDY    78  47  33 NE7       30.05R
Teterboro      CLEAR     76  47  35 NE5       30.04R
Caldwell       PTCLDY    76  46  34 SE6       30.06R
Somerville     CLEAR     72  48  42 CALM      30.03R
Linden         FAIR      78  47  34 S5        30.06R
Perth Amboy      N/A     75 N/A N/A SE7         N/A
Sussex         CLOUDY    72  53  51 CALM      30.06R
Andover          N/A     72  50  45 CALM      30.07R
Trenton        CLEAR     76  48  37 CALM      30.05R
Millville      CLEAR     71  55  56 SE10      30.07R
Atlantic City  CLEAR     70  54  56 SE8       30.08S
Wrightstown    CLEAR     71  52  50 SE8       30.07R
Toms River     NOT AVBL
Belmar         CLEAR     71  54  54 SE5       30.08R
$$

PAZ047>061-062-071-140100-
Eastern Pennsylvania

CITY           SKY/WX    TMP DP  RH WIND       PRES   REMARKS
Philadelphia   PTCLDY    80  49  33 CALM      30.05R
Allentown      PTCLDY    75  43  31 NW3       30.06R
Scranton       CLEAR     72  46  39 CALM      30.07R
$$

CTZ002-004>006-009-010-012-RIZ004-006-007-MAZ004-011-015-140100-
Southern New England

 In CT

CITY           SKY/WX    TMP DP  RH WIND       PRES   REMARKS
Bradley Intl   MOCLDY    71  52  50 NW6       30.06R
Hartford       PTCLDY    74  50  42 N6        30.05R
Danbury        CLEAR     73  48  41 CALM      30.08R
Wtrbury/Oxford MOCLDY    67  52  58 N5        30.09R
Norwalk Harbor NOT AVBL
Bridgeport     CLEAR     74  54  49 SW3       30.06R
Meriden        CLOUDY    73  49  42 CALM      30.05R
New Haven      CLOUDY    74  54  49 N3        30.06R
Chester        FAIR      70  50  49 CALM      30.07R
Groton         CLEAR     73  50  44 N5        30.04R
Willimantic    MOCLDY    70  51  51 NW3       30.06R

 In RI

CITY           SKY/WX    TMP DP  RH WIND       PRES   REMARKS
Providence     PTCLDY    70  57  63 SE3       30.05R
Block Island   CLEAR     68  56  65 S6        30.06R
Westerly       CLEAR     70  59  68 CALM      30.05R

In MA

CITY           SKY/WX    TMP DP  RH WIND       PRES   REMARKS
Boston         PTCLDY    65  58  78 SE3       30.06R
Worcester      MOCLDY    67  52  58 NW6       30.08R
Westfield      CLOUDY    72  52  49 NW5       30.06R
Provincetown   NOT AVBL
Nantucket      CLEAR     67  63  87 N6        30.04R
$$

ANZ330-335-338-340-345-350-353-355-140100-
Coastal Marine Observations


STATION/POSITION TIME  SKY/WX   TEMP    WIND        PRES    VSBY  WAVE
                                AIR SEA DIR/SP/G                  HT/PER
                 (UTC)          (F)     (DEG/KT/KT) (MB)    (MI)  (FT/S)
NY Harb Entrance 2350               73  170/  6/  8 1017.1          2/ 5
20 S Fire Island 2350               74              1017.5          2/ 7
Great South Bay  2330            75      CALM  /  4   N/A
23 SSW Montauk P 2350            72     270/ 10/ 12 1017.6
15 E Barnegat Li 2356               76                N/A           3/ 5
Hudson Canyon    2350            72 79  280/  2/  2 1017.9          3/ 6
Kings Point      2330            76 74   70/  2/  3 1018.0
Execution Rocks  2330            76     100/  6/ 17   N/A
Western LI Sound 2315            77     130/  6/  8   N/A
Central LI Sound NOT AVBL
Robbins Reef     2330            77      40/  9/  9 1017.3
$$


>>>>>>>>>>>>>>>>>>>>>>>>>>>> KEY <<<<<<<<<<<<<<<<<<<<<<<<<<<
>                                                          <
>     SKY/WX - Sky Condition/Present Weather               <
>     TMP    - Temperature in Fahrenheit                   <
>     DP     - Dew Point in Fahrenheit                     <
>     RH     - Relative Humidity in Percent                <
>     WIND   - Direction (from) and Speed in MPH           <
>     PRES   - Mean Sea Level Pressure (inches of Hg)      <
>     WCI    - Wind Chill Index                            <
>     VSB    - Visibility in Miles                         <
>     HX     - Heat Index                                  <
>     TC     - Temperature in Celsius                      <
>     VRB    - Variable Wind Direction                     <
>                                                          <
>>>>>>>>>>>>>>>>>>>>>>>>>>>> KEY <<<<<<<<<<<<<<<<<<<<<<<<<<<


ASUS41 KOKX 140014
RWROKX

Regional Weather Roundup
National Weather Service New York NY
800 PM EDT SAT AUG 13 2022

Note: "FAIR" indicates few or no clouds below 12,000 feet with no
significant weather and/or obstructions to visibility.

NYZ071-072-176-178-NJZ106-104-140100-
New York City Metro Area

CITY           SKY/WX    TMP DP  RH WIND       PRES   REMARKS
Central Park   CLEAR     73  48  41 CALM      30.09R
World Trd Ctr  NOT AVBL
Bronx Lehman C NOT AVBL
LaGuardia Arpt PTCLDY    76  46  34 E8        30.05R
Queens College NOT AVBL
Kennedy Intl   PTCLDY    75  48  38 NE6       30.06R
Breezy Point   NOT AVBL
Brooklyn Coll  NOT AVBL
Staten Island  NOT AVBL
Newark/Liberty PTCLDY    78  47  33 NE7       30.05R
Teterboro      CLEAR     76  47  35 NE5       30.04R
$$

NYZ177-179-078>081-140100-
Long Island New York

CITY           SKY/WX    TMP DP  RH WIND       PRES   REMARKS
Jones Beach    NOT AVBL
Wantagh        NOT AVBL
Hempstead      NOT AVBL
Matinecock Pt  NOT AVBL
Farmingdale    CLEAR     74  48  39 E3        30.07R
MacArthur/ISP  PTCLDY    74  48  39 CALM      30.06R
Stony Brook    NOT AVBL
Shirley        CLEAR     70  50  49 W3        30.07R
Mt Sinai Harb  NOT AVBL
Westhampton    CLEAR     69  51  52 NW3       30.07
East Hampton   FAIR      67  52  59 CALM      30.04S
Southold       NOT AVBL
Montauk          N/A     73  58  59 CALM      30.06R
$$

NYZ052-065-067-140100-
Hudson Valley

CITY           SKY/WX    TMP DP  RH WIND       PRES   REMARKS
White Plains   CLEAR     68  54  60 CALM      30.07R
Larchmont Harb NOT AVBL
Croton On Huds NOT AVBL
Somers         NOT AVBL
Brewster       NOT AVBL
Newburgh       PTCLDY    75  46  35 NE6       30.06R
Montgomery     CLEAR     68  51  54 NW3       30.06R
Otisville      NOT AVBL
Warwick        NOT AVBL
Suffern        NOT AVBL
Poughkeepsie   MOCLDY    73  48  41 NE5       30.05R
Albany         PTCLDY    74  49  41 CALM      30.07R
$$

NJZ001-105-106-008-010-013-015-019>022-104-140100-
New Jersey

CITY           SKY/WX    TMP DP  RH WIND       PRES   REMARKS
Newark/Liberty PTCLDY    78  47  33 NE7       30.05R
Teterboro      CLEAR     76  47  35 NE5       30.04R
Caldwell       PTCLDY    76  46  34 SE6       30.06R
Somerville     CLEAR     72  48  42 CALM      30.03R
Linden         FAIR      78  47  34 S5        30.06R
Perth Amboy    NOT AVBL
Sussex         CLOUDY    72  53  51 CALM      30.06R
Andover          N/A     72  50  45 CALM      30.07R
Trenton        CLEAR     76  48  37 CALM      30.05R
Millville      CLEAR     71  55  56 SE10      30.07R
Atlantic City  CLEAR     70  54  56 SE8       30.08S
Wrightstown    CLEAR     71  52  50 SE8       30.07R
Toms River     NOT AVBL
Belmar         CLEAR     71  54  54 SE5       30.08R
$$

PAZ047>061-062-071-140100-
Eastern Pennsylvania

CITY           SKY/WX    TMP DP  RH WIND       PRES   REMARKS
Philadelphia   PTCLDY    80  49  33 CALM      30.05R
Allentown      PTCLDY    75  43  31 NW3       30.06R
Scranton       CLEAR     72  46  39 CALM      30.07R
$$

CTZ002-004>006-009-010-012-RIZ004-006-007-MAZ004-011-015-140100-
Southern New England

 In CT

CITY           SKY/WX    TMP DP  RH WIND       PRES   REMARKS
Bradley Intl   MOCLDY    71  52  50 NW6       30.06R
Hartford       PTCLDY    74  50  42 N6        30.05R
Danbury        CLEAR     73  48  41 CALM      30.08R
Wtrbury/Oxford MOCLDY    67  52  58 N5        30.09R
Norwalk Harbor NOT AVBL
Bridgeport     CLEAR     74  54  49 SW3       30.06R
Meriden        CLOUDY    73  49  42 CALM      30.05R
New Haven      CLOUDY    74  54  49 N3        30.06R
Chester        FAIR      70  50  49 CALM      30.07R
Groton         CLEAR     73  50  44 N5        30.04R
Willimantic    MOCLDY    70  51  51 NW3       30.06R

 In RI

CITY           SKY/WX    TMP DP  RH WIND       PRES   REMARKS
Providence     PTCLDY    70  57  63 SE3       30.05R
Block Island   CLEAR     68  56  65 S6        30.06R
Westerly       CLEAR     70  59  68 CALM      30.05R

In MA

CITY           SKY/WX    TMP DP  RH WIND       PRES   REMARKS
Boston         PTCLDY    65  58  78 SE3       30.06R
Worcester      MOCLDY    67  52  58 NW6       30.08R
Westfield      CLOUDY    72  52  49 NW5       30.06R
Provincetown   NOT AVBL
Nantucket      CLEAR     67  63  87 N6        30.04R
$$

ANZ330-335-338-340-345-350-353-355-140100-
Coastal Marine Observations


STATION/POSITION TIME  SKY/WX   TEMP    WIND        PRES    VSBY  WAVE
                                AIR SEA DIR/SP/G                  HT/PER
                 (UTC)          (F)     (DEG/KT/KT) (MB)    (MI)  (FT/S)
NY Harb Entrance 2350               73  170/  6/  8 1017.1          2/ 5
20 S Fire Island 2350               74              1017.5          2/ 7
Great South Bay  2330            75      CALM  /  4   N/A
23 SSW Montauk P 2350            72     270/ 10/ 12 1017.6
15 E Barnegat Li 2356               76                N/A           3/ 5
Hudson Canyon    2350            72 79  280/  2/  2 1017.9          3/ 6
Kings Point      2330            76 74   70/  2/  3 1018.0
Execution Rocks  2330            76     100/  6/ 17   N/A
Western LI Sound 2315            77     130/  6/  8   N/A
Central LI Sound NOT AVBL
Robbins Reef     2330            77      40/  9/  9 1017.3
$$


>>>>>>>>>>>>>>>>>>>>>>>>>>>> KEY <<<<<<<<<<<<<<<<<<<<<<<<<<<
>                                                          <
>     SKY/WX - Sky Condition/Present Weather               <
>     TMP    - Temperature in Fahrenheit                   <
>     DP     - Dew Point in Fahrenheit                     <
>     RH     - Relative Humidity in Percent                <
>     WIND   - Direction (from) and Speed in MPH           <
>     PRES   - Mean Sea Level Pressure (inches of Hg)      <
>     WCI    - Wind Chill Index                            <
>     VSB    - Visibility in Miles                         <
>     HX     - Heat Index                                  <
>     TC     - Temperature in Celsius                      <
>     VRB    - Variable Wind Direction                     <
>                                                          <
>>>>>>>>>>>>>>>>>>>>>>>>>>>> KEY <<<<<<<<<<<<<<<<<<<<<<<<<<<




Office: BOX ASUS41 KBOX 140010 RWRBOX REGIONAL WEATHER ROUNDUP NATIONAL WEATHER SERVICE BOSTON/NORTON MA 800 PM EDT SAT AUG 13 2022 NOTE: "FAIR" INDICATES FEW OR NO CLOUDS BELOW 12,000 FEET WITH NO SIGNIFICANT WEATHER AND/OR OBSTRUCTIONS TO VISIBILITY. MAZALL-140100- EASTERN MASSACHUSETTS CITY SKY/WX TMP DP RH WIND PRES REMARKS BOSTON PTCLDY 65 58 78 SE3 30.06R 6HR MIN TEMP: 65; 6HR MAX TEMP: 73; BEVERLY CLEAR 66 57 72 CALM 30.05R LAWRENCE CLOUDY 71 54 54 E3 30.07R BEDFORD CLOUDY 71 56 58 SE7 30.04R BLUE HILL NOT AVBL NORWOOD CLOUDY 70 54 56 CALM 30.05R MARSHFIELD CLEAR 64 59 82 CALM 30.05S PLYMOUTH CLEAR 66 57 72 CALM 30.06R TAUNTON N/A N/A N/A N/A MISG 30.04S NEW BEDFORD MOCLDY 67 57 70 NE5 30.04R $$ MAZALL-140100- CAPE COD AND THE ISLANDS CITY SKY/WX TMP DP RH WIND PRES REMARKS FALMOUTH CLEAR 64 61 88 CALM 30.05R HYANNIS PTCLDY 66 61 84 N5 30.03R CHATHAM CLEAR 68 61 78 NE3 30.04S NANTUCKET CLEAR 67 63 87 N6 30.04R MARTHAS VNYRD CLEAR 65 57 75 N5 30.04R $$ MAZALL-140100- CENTRAL AND WESTERN MASSACHUSETTS CITY SKY/WX TMP DP RH WIND PRES REMARKS WORCESTER MOCLDY 67 52 58 NW6 30.08R 6HR MIN TEMP: 67; 6HR MAX TEMP: 75; FITCHBURG CLOUDY 71 48 43 N6 30.06S ORANGE MOCLDY 69 51 52 CALM 30.08R SPRINGFIELD MOCLDY 69 51 51 N7 30.04R WESTFIELD CLOUDY 72 52 49 NW5 30.06R NORTH ADAMS MOCLDY 66 57 72 CALM 30.08R PITTSFIELD MOCLDY 66 50 56 CALM 30.08S $$ RIZALL-140100- RHODE ISLAND CITY SKY/WX TMP DP RH WIND PRES REMARKS PROVIDENCE PTCLDY 70 57 63 SE3 30.05R 6HR MIN TEMP: 70; 6HR MAX TEMP: 81; NEWPORT MOCLDY 68 55 63 CALM 30.05R BLOCK ISLAND CLEAR 68 56 65 S6 30.06R SMITHFIELD PTCLDY 65 56 72 CALM 30.06S WESTERLY CLEAR 70 59 68 CALM 30.05R $$ CTZALL-140100- CONNECTICUT CITY SKY/WX TMP DP RH WIND PRES REMARKS BRADLEY INTL MOCLDY 71 52 50 NW6 30.06R 6HR MIN TEMP: 71; 6HR MAX TEMP: 79; HARTFORD PTCLDY 74 50 42 N6 30.05R BRIDGEPORT CLEAR 74 54 49 SW3 30.06R DANBURY CLEAR 73 48 41 CALM 30.08R GROTON CLEAR 73 50 44 N5 30.04R NEW HAVEN CLOUDY 74 54 49 N3 30.06R CHESTER FAIR 70 50 49 CALM 30.07R MERIDEN CLOUDY 73 49 42 CALM 30.05R WILLIMANTIC MOCLDY 70 51 51 NW3 30.06R OXFORD MOCLDY 67 52 58 N5 30.09R $$ MEZ002-015-021-024-NHZ003-005-008-011-012-014-VTZ005-008-140100- NORTHERN NEW ENGLAND CITY SKY/WX TMP DP RH WIND PRES REMARKS PORTLAND ME MOCLDY 68 54 60 SW3 30.04S 6HR MIN TEMP: 68; 6HR MAX TEMP: 75; BANGOR ME CLOUDY 71 56 58 NW8 30.02S CONCORD NH CLOUDY 70 52 52 NW6 30.06R MANCHESTER NH MOCLDY 75 50 41 NW13 30.04R NASHUA NH MOCLDY 72 51 47 NW6 30.06R PORTSMOUTH NH MOCLDY 65 54 69 S5 30.04S JAFFREY NH CLOUDY 67 53 61 CALM 30.09S KEENE NH CLOUDY 66 58 75 CALM N/A BURLINGTON VT PTCLDY 72 49 44 NE3 30.08R MT. WASHINGTON FOG 45 43 93 NW8 N/A VSB 1/8 $$ NYZ052-076-140100- EASTERN NEW YORK CITY SKY/WX TMP DP RH WIND PRES REMARKS ALBANY PTCLDY 74 49 41 CALM 30.07R 6HR MIN TEMP: 73; 6HR MAX TEMP: 79; NEW YORK CITY PTCLDY 76 46 34 E8 30.05R 6HR MIN TEMP: 75; 6HR MAX TEMP: 80; $$ ANZALL-140100- MARINE OBSERVATIONS STATION/POSITION TIME TEMP WIND PRES VSBY WAVE AIR SEA DIR/SP/G HT/PER (UTC) (F) (DEG/KT/KT) (MB) (MI) (FT/S) BOSTON BUOY NOT AVBL BUZZARDS BAY NOT AVBL NANTUCKET SOUND NOT AVBL MASS BAY-STELLWA NOT AVBL ISLE OF SHOALS NOT AVBL S OF BLOCK IS NOT AVBL $$ ......................KEY......................... SKY/WX - SKY CONDITION/PRESENT WEATHER TMP - TEMPERATURE IN FAHRENHEIT DWPT - DEWPOINT IN FAHRENHEIT RH - RELATIVE HUMIDITY IN PERCENT WIND - DIRECTION AND SPEED IN MPH PRES - MEAN SEA LEVEL PRESSURE IN INCHES OF HG WCI - WIND CHILL INDEX VSB - VISIBILITY IN MILES HX - HEAT INDEX TC - TEMPERATURE IN CELSIUS VRB - VARIABLE WIND DIRECTION N/A - NOT AVAILABLE